Wind_Speed
54 52 50 48 49 52 56 57 55 54 55 53 50 47 45 45 45 47 49 52 55 58 61 63 63 61 59 58 57 55 53 52 49 43 39 37 38 38 34 30 27 27 28
51 48 46 47 49 53 54 52 52 53 52 49 47 46 45 46 48 51 54 57 59 62 64 65 63 60 57 55 53 50 48 46 44 38 34 33 34 32 28 25 23 23 25
43 45 47 48 51 52 51 51 52 51 49 47 46 46 48 50 52 55 58 60 63 64 65 64 61 57 53 49 47 44 43 41 38 33 28 28 29 27 22 20 19 20 22
48 48 48 49 50 50 50 51 50 48 47 46 47 49 51 53 56 58 60 62 63 63 62 58 54 50 46 43 40 39 38 35 33 28 24 24 25 22 18 17 17 19 20
50 48 47 48 48 48 49 48 47 46 46 47 49 52 54 56 58 59 60 61 60 57 53 49 46 43 40 37 35 34 32 30 27 23 20 20 20 18 16 15 16 17 18
46 45 45 46 47 47 47 46 45 46 47 49 52 54 56 57 58 58 58 56 54 51 46 43 41 38 34 30 29 27 27 24 22 19 16 15 16 14 14 13 14 15 17
43 43 44 46 46 45 44 44 45 47 49 52 54 55 55 56 56 55 53 52 49 45 40 36 33 29 25 23 23 23 22 19 16 14 12 12 11 11 11 11 12 14 14
41 43 44 45 44 43 43 44 46 49 51 53 54 53 54 54 52 50 48 45 41 35 30 28 25 22 20 20 20 20 17 14 12 11 10 9 8 8 8 8 9 9 9
42 43 42 41 41 42 43 46 49 51 52 53 52 52 52 50 47 44 40 35 32 29 28 25 22 19 18 18 17 15 12 9 10 10 9 7 6 6 6 6 5 5 4
41 40 39 39 40 43 45 48 49 51 51 51 51 50 47 44 41 37 33 30 30 29 26 23 20 18 17 16 13 10 8 9 11 11 9 6 5 6 6 6 5 2 1
38 36 36 39 41 44 47 48 49 49 49 49 49 46 42 39 35 32 30 30 30 27 24 20 16 15 14 12 8 7 9 11 11 10 8 6 6 7 8 7 5 3 4
34 35 37 40 43 45 46 47 47 46 46 45 44 41 38 35 31 29 29 29 26 22 18 14 11 10 7 4 6 9 11 12 11 9 8 8 9 10 10 8 6 6 8
32 35 38 41 43 44 44 44 43 43 42 42 40 37 34 30 28 26 26 23 20 17 14 9 5 2 2 6 10 12 12 12 11 10 10 10 11 11 10 9 7 9 11
32 36 39 41 41 41 41 40 40 40 39 38 35 32 28 25 23 21 20 17 16 15 12 8 4 5 8 12 14 13 13 12 13 13 13 13 14 13 11 9 9 11 13
33 36 38 39 39 38 38 37 37 37 36 33 30 26 23 21 19 17 14 13 14 15 14 10 9 11 15 17 17 16 16 15 15 14 15 15 15 13 11 10 11 13 15
34 36 37 36 36 36 36 36 35 35 33 29 25 22 20 18 17 15 13 13 15 16 15 12 12 16 19 20 21 19 18 16 15 15 15 15 15 12 11 12 14 15 16
33 34 35 35 35 35 35 34 33 32 29 27 23 20 18 16 16 14 12 12 13 15 15 12 14 19 22 23 22 20 17 15 14 14 14 14 13 12 13 15 17 18 19
32 33 34 35 35 34 32 31 30 28 27 25 22 19 16 14 14 14 11 10 11 12 13 13 16 21 23 23 22 19 17 15 14 14 14 13 13 14 16 19 20 20 22
32 34 35 35 34 32 29 27 26 25 25 23 21 18 15 12 12 14 12 9 9 10 12 13 16 21 23 22 21 18 16 14 14 14 13 13 14 15 19 22 22 22 22
33 35 35 33 31 28 25 23 23 23 23 22 20 17 15 13 11 11 12 10 8 8 11 13 16 20 21 21 19 16 14 12 11 12 12 13 15 17 21 23 23 23 23
34 34 32 30 27 24 21 20 21 22 22 21 19 17 16 15 12 10 9 10 8 8 10 13 15 18 20 19 16 14 12 10 9 11 12 13 16 19 23 23 24 23 23
33 32 29 26 23 21 19 19 20 22 23 22 20 18 17 16 14 11 10 10 9 8 10 12 14 16 18 17 15 13 11 9 9 11 12 15 17 21 22 22 22 22 21
31 30 28 24 22 20 19 19 20 22 23 22 20 17 16 16 15 13 11 10 10 9 9 12 14 15 15 14 13 12 11 10 10 11 13 15 18 19 20 20 20 19 18
32 30 27 24 22 20 19 19 20 22 24 24 21 18 14 13 14 14 12 11 10 10 10 11 13 14 14 13 12 12 11 11 11 12 13 15 17 18 18 17 16 16 14
33 31 28 25 23 22 21 21 22 23 24 25 24 21 17 15 15 14 13 13 12 12 11 10 12 13 14 14 13 12 11 11 11 12 13 14 15 15 15 14 14 13 12
35 33 30 28 26 24 24 23 24 25 25 25 25 23 20 19 18 17 16 16 15 15 13 11 10 10 12 12 12 11 11 10 10 11 11 12 12 12 12 11 10 10 9
Wind_Direction
288 289 292 297 302 305 305 306 307 309 311 311 309 307 306 304 303 302 302 301 300 299 299 298 297 296 294 292 291 292 292 293 293 291 281 268 262 263 266 265 256 249 247
289 294 300 306 307 306 307 307 309 310 311 309 307 306 306 306 306 304 303 302 301 300 299 298 297 295 293 291 291 291 291 293 293 289 277 263 258 260 264 260 251 245 245
307 312 312 310 308 308 308 309 310 311 310 308 307 307 308 308 307 306 305 303 302 301 300 299 297 295 293 290 289 289 290 292 292 287 270 257 255 259 258 251 246 243 243
318 316 312 309 308 308 309 311 312 311 309 308 309 309 310 309 308 307 306 305 304 303 302 302 300 297 293 288 286 287 289 291 290 280 262 251 251 254 250 243 241 242 245
316 313 311 309 310 310 311 312 311 309 309 310 311 312 311 310 309 308 307 307 307 306 307 307 304 299 293 288 285 286 287 288 283 270 255 245 246 249 243 240 240 246 251
313 311 311 311 312 311 311 310 309 310 312 313 313 312 311 310 310 310 310 309 308 309 309 308 304 300 294 288 286 286 286 282 273 260 247 238 240 242 238 237 242 250 259
311 311 312 312 312 311 310 310 311 313 314 314 313 312 311 311 312 312 311 309 309 309 309 309 307 302 297 291 287 288 284 273 258 244 231 228 232 235 233 236 243 253 261
311 313 313 313 312 311 312 313 315 316 315 314 313 312 313 314 314 314 313 312 312 313 313 312 309 304 298 293 289 288 278 262 236 215 206 211 219 222 222 228 238 245 252
312 313 313 313 313 314 315 316 317 316 315 314 314 315 316 317 317 317 316 315 315 314 313 310 307 303 299 295 290 281 265 232 196 182 184 191 201 204 202 208 211 219 248
313 313 313 313 314 316 317 318 317 316 315 316 317 319 321 321 321 320 319 318 316 314 310 305 300 296 297 296 287 264 230 188 168 164 170 179 186 182 175 168 161 170 299
313 312 313 315 316 318 319 319 318 317 318 320 321 323 324 324 324 323 322 321 318 315 310 303 296 291 294 290 264 214 178 161 157 162 169 173 168 157 151 144 133 102 70
312 313 315 317 319 321 321 320 321 322 323 324 326 326 327 327 327 326 326 325 324 321 317 308 299 295 293 255 189 164 153 152 155 162 167 166 160 151 142 130 114 94 83
313 315 318 321 322 323 323 324 325 327 328 328 329 329 330 330 330 330 331 334 339 341 338 327 314 300 162 154 150 145 143 148 153 158 161 160 154 145 131 117 107 99 91
316 319 322 324 325 325 326 328 330 332 332 333 333 334 336 337 338 339 343 349 357 2 9 22 62 108 129 137 136 136 139 144 148 150 151 151 146 136 123 114 112 109 104
321 324 326 327 327 329 331 334 335 336 336 337 338 342 347 348 350 352 358 6 13 19 29 49 85 110 121 125 126 128 131 135 138 139 140 141 138 129 121 119 120 116 111
328 329 329 329 331 333 335 337 339 340 341 343 346 351 356 358 2 6 10 12 16 26 38 61 96 113 118 122 124 126 129 131 131 132 133 135 132 124 123 125 124 118 114
331 331 331 332 334 336 337 340 342 344 347 350 353 356 0 5 9 12 13 13 18 29 42 70 104 117 121 123 125 126 126 126 123 124 129 132 129 124 128 130 126 119 115
333 333 334 335 336 337 339 342 346 349 353 355 357 359 3 10 14 16 14 16 23 33 49 81 114 124 127 126 126 125 121 114 111 115 121 126 127 127 132 134 130 123 117
337 337 337 336 337 339 343 347 351 355 358 0 1 3 7 11 17 20 23 26 31 42 59 90 121 133 135 134 131 126 121 114 110 113 117 122 126 130 136 138 135 130 123
341 339 338 339 342 346 351 355 359 3 5 7 8 10 12 16 17 22 27 34 42 56 70 95 125 141 145 145 141 135 127 120 113 113 117 121 127 133 139 140 139 135 129
343 343 344 347 352 356 1 5 8 11 14 15 18 21 24 25 27 32 37 41 54 69 78 98 123 143 152 154 152 148 141 129 119 119 119 122 128 135 140 142 143 142 138
349 351 354 358 3 7 11 13 15 17 19 21 24 27 31 33 37 46 52 53 63 76 83 100 117 136 151 157 157 155 153 142 126 122 120 124 128 135 141 144 146 148 147
359 2 5 9 14 17 19 19 19 20 21 23 24 27 33 38 43 51 60 65 71 82 87 99 110 122 137 149 156 157 154 146 136 130 125 125 128 133 138 142 146 150 153
12 13 16 21 24 25 25 24 24 24 25 26 27 30 35 42 48 55 63 73 79 85 92 97 107 115 124 135 143 149 150 146 140 136 133 131 131 132 135 138 143 147 152
22 25 28 31 32 32 31 29 28 28 28 30 33 37 45 53 57 62 69 78 86 90 96 100 105 112 119 126 132 138 143 143 141 140 140 140 140 139 138 137 140 145 151
31 33 35 36 36 36 34 33 32 33 34 35 38 43 51 60 65 68 73 81 87 91 94 100 104 113 120 125 130 135 139 142 142 143 147 152 156 156 156 154 153 154 158
Height
5744 5740 5735 5731 5726 5719 5713 5705 5696 5688 5680 5672 5664 5657 5650 5644 5639 5633 5627 5621 5615 5608 5601 5594 5587 5581 5574 5568 5563 5558 5554 5550 5547 5546 5542 5540 5538 5538 5540 5541 5543 5545 5548
5733 5729 5724 5719 5713 5706 5699 5691 5683 5676 5667 5660 5652 5646 5639 5633 5627 5620 5614 5606 5599 5591 5583 5576 5569 5563 5558 5552 5547 5544 5540 5536 5533 5532 5530 5528 5527 5528 5530 5531 5533 5536 5538
5723 5718 5713 5707 5700 5693 5686 5678 5671 5663 5656 5648 5641 5634 5628 5621 5614 5606 5598 5590 5582 5573 5565 5558 5552 5547 5542 5537 5533 5530 5527 5524 5521 5519 5519 5518 5519 5520 5522 5523 5525 5528 5531
5712 5707 5700 5694 5688 5681 5673 5666 5659 5652 5645 5637 5630 5623 5616 5608 5600 5591 5582 5574 5565 5556 5548 5541 5535 5530 5527 5523 5521 5518 5516 5514 5511 5509 5510 5510 5512 5513 5515 5517 5520 5522 5524
5701 5695 5688 5682 5676 5669 5662 5655 5648 5641 5634 5626 5618 5611 5602 5594 5585 5576 5567 5558 5549 5541 5533 5527 5521 5516 5513 5511 5509 5508 5506 5505 5503 5502 5503 5504 5506 5508 5510 5512 5515 5517 5518
5690 5684 5678 5671 5665 5658 5652 5645 5638 5631 5623 5615 5607 5598 5589 5580 5570 5561 5552 5543 5535 5528 5522 5516 5509 5505 5502 5500 5499 5499 5498 5497 5496 5496 5498 5500 5502 5503 5506 5508 5510 5512 5513
5680 5674 5667 5661 5655 5648 5642 5635 5627 5620 5612 5603 5595 5586 5576 5567 5557 5548 5539 5530 5523 5517 5511 5506 5500 5496 5494 5493 5492 5491 5490 5490 5491 5492 5494 5496 5498 5500 5502 5505 5507 5508 5509
5670 5664 5658 5651 5645 5638 5632 5624 5617 5609 5601 5592 5583 5574 5564 5555 5546 5536 5527 5519 5512 5507 5503 5498 5494 5491 5489 5488 5487 5486 5485 5486 5487 5489 5492 5494 5496 5498 5500 5502 5504 5505 5506
5661 5655 5648 5642 5636 5629 5622 5614 5606 5598 5590 5581 5572 5563 5553 5544 5534 5526 5517 5510 5505 5500 5496 5492 5489 5487 5485 5483 5482 5481 5482 5483 5485 5488 5490 5493 5495 5497 5499 5501 5503 5504 5504
5653 5646 5640 5634 5627 5620 5613 5605 5596 5588 5579 5569 5560 5551 5542 5533 5524 5517 5510 5504 5499 5494 5490 5486 5484 5482 5481 5479 5478 5478 5480 5482 5484 5487 5490 5493 5495 5497 5499 5501 5503 5504 5503
5645 5639 5633 5626 5619 5612 5604 5595 5587 5578 5568 5559 5549 5540 5532 5524 5517 5510 5504 5498 5492 5487 5483 5480 5478 5477 5477 5476 5476 5477 5479 5482 5485 5488 5491 5493 5496 5498 5501 5503 5504 5504 5504
5638 5632 5626 5619 5612 5603 5595 5586 5577 5568 5558 5549 5540 5531 5524 5517 5510 5504 5499 5492 5486 5481 5478 5475 5474 5474 5473 5474 5475 5477 5480 5483 5486 5489 5492 5495 5498 5500 5502 5504 5505 5506 5505
5632 5626 5620 5612 5604 5595 5587 5578 5569 5560 5550 5541 5533 5525 5518 5511 5506 5501 5495 5489 5483 5479 5475 5472 5472 5472 5473 5474 5476 5479 5482 5485 5488 5491 5494 5497 5500 5503 5505 5507 5508 5508 5508
5627 5621 5613 5605 5597 5588 5580 5571 5562 5553 5544 5536 5528 5520 5514 5508 5503 5498 5493 5488 5484 5479 5475 5473 5472 5473 5474 5476 5479 5481 5484 5487 5490 5493 5496 5500 5503 5506 5508 5509 5510 5511 5512
5622 5614 5606 5598 5590 5582 5574 5565 5557 5548 5540 5532 5524 5517 5512 5507 5502 5497 5493 5489 5485 5480 5477 5475 5475 5476 5477 5480 5482 5485 5488 5492 5494 5497 5500 5503 5506 5509 5511 5512 5513 5515 5516
5616 5608 5601 5593 5585 5577 5569 5561 5552 5544 5536 5528 5522 5516 5511 5506 5502 5498 5494 5490 5487 5483 5480 5478 5479 5480 5482 5484 5487 5490 5494 5497 5499 5502 5505 5507 5510 5513 5514 5516 5517 5519 5521
5611 5603 5596 5588 5580 5572 5564 5556 5548 5541 5533 5526 5520 5515 5511 5506 5503 5499 5496 5493 5490 5487 5484 5483 5483 5485 5487 5490 5493 5496 5499 5502 5504 5506 5509 5511 5514 5516 5518 5520 5522 5524 5527
5607 5599 5591 5583 5575 5567 5560 5552 5545 5538 5532 5525 5520 5515 5511 5508 5504 5501 5498 5496 5494 5491 5489 5487 5488 5490 5493 5496 5499 5502 5504 5507 5509 5511 5513 5515 5517 5519 5522 5524 5527 5530 5533
5603 5595 5587 5579 5571 5563 5556 5549 5543 5537 5531 5525 5520 5516 5512 5509 5506 5503 5500 5498 5496 5495 5493 5492 5493 5495 5498 5501 5504 5506 5509 5511 5513 5515 5517 5519 5521 5523 5526 5529 5533 5536 5539
5599 5591 5583 5574 5566 5559 5553 5548 5542 5537 5532 5526 5521 5517 5513 5510 5507 5505 5503 5501 5499 5498 5497 5497 5497 5500 5503 5506 5508 5511 5513 5516 5518 5519 5521 5523 5524 5527 5530 5533 5537 5541 5545
5596 5587 5579 5570 5563 5557 5552 5547 5543 5538 5533 5528 5523 5518 5514 5511 5508 5506 5505 5503 5502 5502 5502 5501 5502 5504 5507 5510 5512 5515 5517 5519 5521 5523 5525 5526 5528 5531 5534 5538 5542 5546 5549
5593 5584 5575 5568 5562 5557 5552 5548 5544 5540 5535 5529 5525 5521 5517 5514 5511 5509 5507 5507 5506 5506 5506 5506 5507 5508 5511 5514 5516 5519 5521 5523 5525 5527 5528 5530 5532 5535 5539 5542 5546 5550 5554
5591 5582 5574 5568 5562 5558 5554 5550 5546 5542 5537 5532 5527 5523 5520 5517 5514 5512 5511 5510 5509 5509 5510 5510 5511 5512 5514 5517 5519 5522 5524 5526 5528 5530 5532 5535 5537 5540 5543 5547 5551 5554 5558
5591 5583 5575 5569 5565 5561 5557 5553 5549 5544 5539 5534 5530 5526 5522 5520 5518 5516 5514 5513 5513 5513 5514 5515 5516 5517 5519 5521 5523 5525 5528 5530 5532 5534 5536 5539 5542 5545 5548 5551 5554 5558 5561
5593 5585 5578 5573 5569 5564 5560 5556 5552 5547 5543 5538 5533 5528 5525 5523 5521 5519 5518 5517 5517 5517 5518 5519 5520 5521 5523 5525 5527 5529 5531 5533 5536 5538 5540 5543 5546 5549 5551 5554 5557 5560 5563
5597 5590 5584 5578 5574 5569 5564 5560 5556 5551 5546 5542 5537 5533 5529 5527 5525 5524 5522 5521 5521 5522 5523 5524 5525 5526 5527 5529 5531 5533 5535 5537 5539 5541 5544 5546 5549 5551 5554 5557 5559 5562 5564